Temperature
18 18 18 18 18 18 18 18 17 17 17 18 18 18 18 18 18 18 18 18 18 18 18 18 18 18 18 18 18 18 18 18 18 18 18 18 18 18 18 18 18 18 18
18 18 18 18 17 17 18 17 17 17 17 18 18 18 18 18 18 18 18 18 18 18 18 18 18 18 18 18 18 18 18 18 18 18 18 18 18 18 18 18 18 18 18
18 18 18 17 17 17 17 17 17 17 17 17 17 17 18 18 18 18 18 18 18 18 18 18 18 18 18 18 18 18 18 18 18 18 18 18 18 18 18 18 18 18 18
18 18 18 17 17 17 17 17 17 17 17 17 17 17 17 17 17 18 18 18 17 17 17 18 18 18 18 18 18 18 18 18 18 17 17 17 17 18 18 18 18 18 18
17 17 18 17 17 17 17 17 17 17 17 17 17 17 17 17 17 17 17 17 17 17 17 17 17 17 17 18 18 17 17 17 17 17 17 17 17 17 17 17 17 17 17
17 17 17 17 17 17 17 17 17 17 17 17 17 17 17 17 17 17 17 17 17 17 17 17 17 17 17 17 17 17 17 17 17 17 17 17 17 17 17 17 17 17 17
17 17 17 17 17 17 17 17 17 17 17 17 17 17 17 17 17 17 17 17 17 17 17 17 17 17 17 17 17 17 17 17 17 17 17 17 17 17 17 17 17 17 17
17 17 18 17 17 17 17 17 17 17 17 17 17 17 17 17 17 17 17 17 17 17 17 17 17 17 17 17 17 17 17 17 17 17 17 17 17 17 17 17 17 17 17
18 17 17 17 17 17 17 17 17 17 17 17 17 17 17 17 17 17 17 17 17 17 17 17 17 17 17 17 17 17 17 17 16 16 16 17 17 17 17 17 17 17 17
18 18 17 17 17 17 17 17 17 17 17 17 17 16 16 16 16 16 16 16 16 16 16 16 16 16 16 16 16 16 16 16 16 16 16 16 16 16 16 16 17 16 17
18 18 18 17 17 17 17 17 17 17 17 16 16 16 16 16 16 16 16 16 16 16 16 16 16 16 16 16 16 16 16 16 16 16 16 16 16 16 16 16 16 16 16
18 18 18 18 17 17 17 17 16 16 16 16 16 16 16 16 16 16 16 16 16 16 16 16 16 16 16 16 16 16 16 16 16 16 16 16 16 16 16 16 16 16 16
18 18 18 18 18 17 17 17 16 16 16 16 16 16 16 16 16 16 16 16 16 16 16 16 16 16 16 16 16 16 16 16 16 16 16 16 16 16 16 16 16 16 16
18 18 18 18 18 17 17 17 17 16 16 16 16 16 16 16 16 16 16 16 16 15 15 15 16 16 16 16 16 16 16 16 15 16 16 16 16 16 15 15 15 15 15
18 18 18 18 18 17 17 17 17 16 16 16 16 16 16 16 16 16 16 15 15 15 15 15 15 15 16 16 16 15 15 15 15 15 15 15 15 15 15 15 15 15 15
18 18 18 18 17 17 17 17 17 16 16 16 16 16 16 16 16 16 15 15 15 15 15 15 15 15 15 15 15 15 15 15 15 15 15 15 15 15 15 15 15 15 15
18 18 18 17 17 17 17 17 16 16 16 16 16 16 16 16 16 15 15 15 15 15 15 15 15 15 15 15 15 15 15 15 15 15 15 15 15 15 15 15 14 15 14
18 18 17 17 17 17 17 16 16 16 16 16 16 16 16 16 16 15 15 15 15 15 15 15 15 15 15 15 15 15 15 15 15 15 15 15 15 14 14 14 14 14 14
18 18 17 17 17 17 16 16 16 16 16 16 16 16 16 16 15 15 15 15 15 15 15 14 14 14 14 15 15 15 15 15 14 14 14 14 14 14 14 14 14 14 14
18 18 17 17 17 16 16 16 16 16 16 15 15 15 15 15 15 15 15 15 14 14 14 14 14 14 14 14 14 15 15 14 14 14 14 14 14 14 14 14 14 14 14
18 17 17 17 16 16 16 16 16 16 15 15 15 15 15 15 15 15 15 14 14 14 14 14 14 14 14 14 14 14 14 14 14 14 14 14 14 14 14 14 14 14 14
18 17 17 17 16 16 16 16 16 15 15 15 15 15 15 15 15 15 14 14 14 14 14 14 14 14 14 14 14 14 14 14 14 14 14 14 14 14 13 13 13 13 13
17 17 17 16 16 16 16 16 16 15 15 15 15 15 15 15 15 14 14 14 14 14 14 14 14 14 14 14 14 14 14 14 14 14 14 14 14 14 13 13 13 13 13
17 17 17 16 16 16 16 16 15 15 15 15 15 15 15 15 14 14 14 14 14 14 14 14 13 13 14 13 14 14 14 14 14 13 13 13 13 13 13 13 13 13 13
17 17 17 16 16 16 16 16 15 15 15 15 15 15 15 15 14 14 14 14 14 14 14 13 13 13 13 13 13 13 14 14 14 13 13 13 13 13 13 13 13 13 13
17 17 17 16 16 16 16 16 15 15 15 15 15 15 15 14 14 14 14 14 14 14 13 13 13 13 13 13 13 13 13 13 13 13 13 13 13 13 13 13 13 13 13
Wind_Speed
6 9 11 11 11 11 11 11 11 11 11 11 11 11 11 12 12 11 11 10 10 10 10 10 10 10 9 9 9 8 8 8 8 8 8 8 8 8 8 8 8 7 9
8 10 11 11 11 10 10 11 11 11 12 11 11 11 12 12 12 12 12 11 10 10 10 10 10 10 9 9 9 8 7 7 7 7 7 8 9 9 9 9 9 8 10
8 10 11 11 11 11 11 12 12 12 12 12 12 12 12 12 12 12 12 12 11 11 11 11 10 10 10 10 9 8 7 6 6 6 6 6 8 9 9 9 9 9 9
9 10 11 11 11 11 12 12 12 12 12 12 12 12 12 12 12 12 12 12 12 12 12 12 11 11 10 10 9 9 7 6 6 6 6 8 8 10 10 9 9 9 9
10 12 11 11 11 11 11 12 12 13 13 12 12 12 12 12 11 12 12 12 12 13 12 12 12 11 11 10 9 9 8 7 7 7 8 8 8 10 10 10 9 10 10
10 12 11 11 11 11 11 12 12 12 13 13 13 12 12 12 12 12 12 12 12 12 12 12 11 11 11 10 9 9 9 9 8 8 8 9 8 10 10 10 10 10 10
9 10 11 11 11 11 11 11 12 12 12 13 13 13 12 12 11 11 11 11 12 12 12 11 11 11 10 10 9 8 7 8 7 8 8 9 9 10 10 10 10 11 11
8 10 11 10 11 11 11 11 11 11 12 12 12 12 12 11 10 10 11 12 12 11 11 10 10 10 9 9 8 9 8 8 8 8 8 9 10 10 10 10 11 11 11
7 7 8 10 10 11 11 11 10 10 11 11 11 11 11 11 12 13 13 13 12 12 12 11 10 9 9 8 8 8 8 9 7 7 8 9 10 10 10 11 11 11 11
6 5 6 8 10 9 9 9 9 9 9 9 8 8 9 11 14 16 15 13 13 12 11 11 10 9 8 8 7 7 8 7 7 8 8 9 10 10 11 12 12 12 12
6 4 5 5 7 8 8 9 8 7 6 6 6 6 6 7 9 12 13 12 12 12 10 10 9 7 7 6 6 7 7 6 9 8 9 11 12 13 13 12 12 12 12
5 5 5 5 6 6 7 7 5 6 6 4 5 6 6 7 8 10 11 10 10 9 8 7 6 5 4 4 4 5 5 8 8 8 10 13 13 13 13 12 12 12 12
5 5 5 4 5 6 5 5 4 5 4 4 6 7 7 6 6 7 5 6 5 5 4 4 3 3 4 5 6 6 8 8 8 10 12 14 13 12 12 11 11 11 11
6 5 5 4 4 5 5 4 4 3 2 3 4 7 6 4 4 4 4 4 4 4 4 4 4 5 7 7 7 8 8 8 9 9 12 14 13 12 11 11 11 11 11
6 5 5 4 5 5 5 3 4 4 3 4 4 5 6 4 4 4 4 5 5 4 4 4 5 6 7 7 8 8 8 8 9 9 10 12 12 12 11 10 11 10 10
6 5 5 5 5 5 4 4 3 4 4 5 4 5 7 6 4 4 4 5 5 5 5 5 5 5 5 6 7 7 7 7 8 8 9 10 12 12 12 11 10 10 10
6 6 5 5 5 5 5 5 4 4 5 3 4 6 7 6 5 4 4 4 4 5 6 6 6 5 4 5 5 5 5 6 6 7 8 8 9 11 12 12 11 11 11
6 6 5 5 5 5 5 4 3 4 5 4 5 5 5 6 8 5 4 4 5 5 4 4 4 4 4 4 4 4 4 4 5 5 6 7 7 8 9 11 11 10 10
5 6 6 5 5 5 5 4 4 4 4 4 5 4 5 7 7 6 4 3 5 4 4 4 4 3 3 3 3 3 3 3 3 4 5 6 7 8 8 9 10 10 10
5 6 6 5 4 4 4 4 3 4 3 4 4 3 5 6 7 5 3 4 5 4 4 4 4 3 2 2 2 3 2 2 3 4 4 4 5 6 7 7 8 8 10
5 6 5 5 4 4 3 3 2 2 2 2 2 4 5 5 5 4 4 4 4 3 3 3 3 3 2 2 2 2 2 2 3 3 3 3 4 5 7 7 7 7 7
5 6 5 5 4 5 3 2 2 2 2 3 2 4 4 4 5 4 4 3 4 3 3 4 3 2 2 2 1 1 1 2 3 2 2 3 3 4 4 6 7 7 7
5 6 6 5 5 5 4 2 2 3 2 2 2 2 2 3 4 4 4 3 3 2 2 2 2 3 2 3 2 2 2 1 1 2 2 2 3 3 2 4 6 7 7
5 5 5 5 5 4 4 3 3 3 2 2 2 2 1 2 3 4 3 3 2 3 2 1 2 1 2 2 3 3 1 1 1 1 2 2 2 2 2 3 4 5 6
6 5 5 5 5 4 4 3 2 2 1 1 2 2 2 1 2 3 2 1 2 2 1 2 3 2 2 1 1 2 2 2 1 2 1 0 1 1 2 2 3 4 6
7 6 5 5 4 4 4 4 3 3 2 2 2 1 1 1 1 2 2 1 1 1 1 2 2 1 1 1 1 1 1 1 1 1 1 1 0 0 1 2 3 4 5
Wind_Direction
74 73 57 49 48 48 49 51 52 52 54 55 54 56 55 58 60 61 66 71 78 80 80 81 82 79 77 76 77 80 83 90 97 101 101 101 101 97 97 106 104 97 96
84 82 65 55 51 50 52 54 54 54 55 56 56 55 58 62 64 63 65 72 79 79 79 80 80 79 77 76 76 76 78 88 101 102 101 100 98 98 97 96 99 95 97
83 84 70 58 54 53 56 58 58 58 59 58 59 58 59 61 62 62 64 70 76 78 77 77 77 77 75 72 68 69 74 81 88 92 97 100 98 99 98 97 98 97 98
79 76 69 63 59 59 61 61 60 60 60 60 62 62 60 62 62 63 66 70 74 74 74 73 71 72 70 69 66 65 68 73 71 76 80 87 92 97 95 95 97 96 97
82 82 76 69 67 66 66 65 61 60 60 60 60 61 62 63 66 68 71 74 76 76 75 73 72 70 67 65 65 63 62 60 59 67 77 79 82 94 96 93 93 94 95
90 92 85 77 73 71 70 68 64 64 62 62 61 62 62 64 66 71 75 77 80 80 79 76 76 74 69 64 60 57 55 57 57 64 74 76 81 92 95 92 92 91 91
95 99 96 88 82 78 76 74 71 67 65 64 63 63 63 65 67 73 80 81 81 81 81 78 77 75 70 64 56 50 54 59 64 68 73 78 84 92 96 94 93 90 89
100 103 109 102 93 88 85 80 76 73 69 67 65 64 64 63 66 79 85 81 78 78 79 79 79 75 71 64 55 50 55 62 66 79 78 80 87 89 95 99 97 95 92
95 108 121 122 109 99 94 87 81 79 74 71 69 66 67 67 78 87 84 79 77 78 77 77 76 74 70 65 58 54 57 57 57 69 77 82 88 93 97 101 100 98 96
94 99 110 119 122 120 112 101 93 88 82 80 78 73 70 72 82 86 82 78 77 77 76 75 74 75 73 67 61 56 59 56 69 70 77 87 92 94 98 100 99 97 95
97 95 94 101 109 116 114 106 115 110 97 94 94 84 79 79 84 83 83 82 80 79 78 79 74 75 78 71 63 60 58 66 72 72 78 88 92 94 95 96 98 97 94
109 104 99 96 103 104 100 109 118 104 106 96 92 90 82 72 76 85 91 88 87 85 79 77 70 69 70 79 71 63 67 69 74 79 83 89 91 95 97 96 97 96 94
107 99 100 101 105 105 99 104 86 86 87 73 69 86 84 84 89 96 104 99 97 93 82 74 66 66 70 69 70 69 70 71 71 75 84 87 88 92 96 99 99 96 95
99 95 92 87 90 98 99 101 101 93 80 78 57 72 74 65 62 69 76 87 86 73 63 60 64 58 60 63 70 70 68 75 79 82 84 85 86 89 93 96 97 95 94
103 98 89 79 77 81 85 89 96 88 68 74 67 72 82 76 64 66 65 64 68 67 61 49 55 54 54 55 62 67 66 73 81 84 89 87 87 85 87 96 98 97 95
115 104 96 92 85 85 87 83 79 78 71 64 55 63 81 78 72 63 62 61 57 54 56 59 61 60 57 57 58 62 64 68 81 89 94 89 86 85 84 86 93 94 92
122 112 99 97 88 83 82 78 77 73 78 70 57 60 75 82 83 76 61 61 57 54 51 50 52 60 68 66 58 58 67 67 70 84 92 95 90 85 85 86 86 87 87
126 119 109 106 95 87 85 79 74 67 68 63 55 49 67 76 77 71 66 62 62 58 57 49 44 46 54 57 55 48 59 69 74 82 89 95 97 93 88 85 86 87 86
125 120 117 108 106 100 97 90 76 74 70 67 63 49 47 62 74 75 69 66 65 58 51 55 50 45 50 53 65 65 52 52 61 74 82 87 89 101 105 93 88 82 85
123 121 119 110 108 102 98 92 79 76 69 60 59 59 53 55 69 74 74 65 64 61 57 56 56 50 48 45 58 77 84 76 66 60 66 79 85 96 107 104 98 86 81
123 120 120 122 120 109 96 93 92 92 90 76 58 60 59 60 71 76 69 64 63 61 64 67 59 45 39 44 52 53 57 84 97 84 67 69 70 79 88 96 103 100 92
139 132 129 123 116 107 100 106 115 109 107 106 79 63 53 61 67 80 85 80 74 58 45 52 50 26 17 38 61 66 55 27 43 88 96 80 70 76 76 83 93 94 95
148 146 144 143 134 126 121 108 99 86 76 84 91 75 45 59 68 63 79 85 98 91 77 59 53 46 17 3 34 66 91 79 25 17 78 89 89 84 76 79 87 90 94
150 145 145 141 135 130 130 124 130 126 119 132 130 125 114 77 84 71 68 88 108 103 107 108 84 51 50 15 5 14 55 126 126 40 15 54 88 100 97 87 85 91 92
150 150 152 140 137 139 137 136 136 122 133 121 111 132 132 107 95 93 74 65 83 97 103 77 77 53 57 50 21 5 4 352 26 130 126 53 33 66 97 97 94 91 95
148 148 145 139 143 142 147 153 153 142 144 134 134 127 123 123 98 98 97 81 88 117 124 109 108 99 75 50 11 27 31 20 3 69 112 143 116 349 78 96 92 91 93
Height
1503 1501 1500 1499 1498 1497 1497 1496 1495 1495 1494 1494 1493 1492 1492 1492 1491 1491 1491 1491 1492 1493 1495 1496 1497 1498 1499 1500 1501 1502 1503 1504 1505 1506 1507 1508 1509 1510 1511 1512 1513 1514 1514
1504 1502 1501 1500 1499 1499 1498 1497 1497 1496 1495 1495 1494 1494 1494 1493 1493 1492 1492 1492 1493 1495 1496 1497 1498 1499 1500 1501 1502 1502 1503 1504 1506 1507 1508 1509 1510 1510 1511 1512 1513 1514 1515
1504 1503 1502 1501 1500 1500 1499 1499 1498 1498 1497 1497 1496 1495 1495 1495 1494 1494 1494 1494 1495 1496 1497 1498 1499 1500 1501 1502 1503 1503 1504 1505 1506 1507 1508 1509 1510 1511 1512 1512 1513 1514 1515
1505 1504 1503 1503 1502 1501 1501 1500 1500 1499 1499 1498 1497 1497 1496 1496 1496 1496 1495 1496 1497 1497 1499 1500 1500 1501 1502 1503 1504 1504 1505 1506 1508 1508 1509 1510 1511 1512 1513 1513 1514 1515 1516
1506 1505 1504 1504 1503 1503 1502 1502 1501 1501 1500 1499 1499 1498 1498 1497 1497 1497 1497 1498 1498 1499 1500 1501 1502 1502 1503 1504 1505 1506 1507 1508 1509 1509 1510 1511 1512 1513 1513 1514 1515 1516 1517
1507 1506 1506 1505 1505 1504 1504 1503 1503 1502 1501 1501 1500 1499 1499 1498 1498 1499 1499 1499 1500 1501 1501 1502 1503 1504 1505 1505 1506 1507 1508 1509 1510 1510 1511 1512 1513 1513 1514 1515 1516 1517 1517
1508 1507 1507 1507 1506 1506 1505 1505 1504 1504 1503 1503 1502 1501 1500 1499 1499 1499 1500 1501 1502 1502 1503 1504 1504 1505 1506 1507 1508 1508 1509 1510 1510 1511 1512 1512 1513 1514 1514 1515 1516 1517 1518
1509 1509 1508 1508 1508 1507 1507 1507 1506 1506 1505 1504 1503 1502 1500 1498 1495 1497 1500 1502 1503 1504 1504 1505 1506 1506 1507 1508 1509 1509 1510 1510 1511 1512 1512 1513 1514 1514 1515 1516 1517 1518 1519
1511 1510 1510 1509 1509 1509 1509 1509 1508 1508 1507 1506 1506 1504 1502 1497 1493 1496 1501 1503 1504 1505 1506 1507 1507 1508 1509 1509 1510 1511 1511 1511 1512 1512 1513 1513 1514 1515 1516 1517 1518 1519 1520
1512 1512 1512 1511 1511 1511 1511 1511 1510 1510 1509 1509 1508 1507 1504 1501 1499 1501 1504 1505 1506 1507 1508 1508 1509 1510 1510 1511 1511 1512 1512 1512 1513 1513 1513 1514 1515 1515 1516 1517 1518 1520 1521
1513 1513 1513 1514 1513 1513 1513 1513 1513 1512 1512 1511 1511 1510 1508 1506 1506 1506 1507 1508 1509 1509 1510 1510 1511 1511 1512 1512 1513 1513 1513 1513 1513 1514 1514 1515 1516 1516 1517 1518 1519 1521 1522
1514 1514 1515 1515 1515 1515 1515 1514 1514 1515 1514 1514 1514 1513 1512 1511 1511 1511 1511 1511 1511 1511 1512 1512 1512 1513 1513 1514 1514 1515 1515 1515 1515 1515 1515 1516 1517 1518 1519 1520 1521 1522 1523
1515 1515 1516 1516 1517 1516 1516 1516 1516 1517 1516 1516 1516 1516 1515 1514 1514 1514 1514 1514 1514 1514 1514 1514 1514 1514 1515 1515 1516 1516 1516 1517 1516 1517 1517 1518 1519 1520 1521 1522 1522 1523 1524
1515 1516 1517 1517 1517 1518 1518 1518 1518 1518 1518 1518 1518 1518 1518 1517 1517 1517 1517 1516 1516 1516 1516 1516 1516 1517 1517 1517 1517 1518 1518 1518 1518 1519 1519 1520 1520 1521 1522 1522 1523 1524 1525
1516 1517 1517 1518 1518 1518 1518 1519 1519 1520 1520 1520 1520 1520 1519 1519 1519 1519 1519 1518 1518 1518 1518 1518 1518 1518 1519 1519 1519 1519 1520 1520 1520 1521 1521 1521 1522 1522 1523 1524 1524 1525 1526
1516 1517 1518 1518 1519 1519 1519 1520 1520 1521 1521 1521 1521 1521 1521 1521 1521 1520 1520 1520 1520 1520 1520 1520 1520 1520 1520 1521 1521 1521 1522 1522 1523 1522 1523 1523 1523 1524 1524 1525 1525 1525 1526
1516 1517 1518 1519 1519 1520 1520 1521 1521 1522 1522 1523 1523 1523 1523 1522 1522 1522 1522 1522 1522 1522 1522 1521 1522 1522 1522 1522 1523 1523 1524 1524 1524 1524 1524 1524 1525 1525 1525 1525 1526 1526 1527
1516 1517 1518 1519 1520 1520 1521 1522 1522 1523 1523 1524 1524 1524 1524 1524 1524 1523 1523 1523 1523 1523 1523 1523 1523 1523 1523 1524 1524 1525 1525 1526 1526 1526 1526 1526 1526 1526 1527 1527 1527 1528 1528
1516 1517 1518 1519 1520 1521 1522 1522 1523 1524 1524 1524 1524 1525 1525 1525 1525 1524 1524 1525 1525 1524 1525 1525 1524 1524 1525 1525 1526 1526 1527 1527 1527 1527 1527 1527 1528 1528 1528 1528 1528 1529 1529
1516 1517 1518 1519 1520 1521 1522 1523 1524 1524 1525 1525 1525 1526 1526 1526 1526 1526 1526 1526 1526 1525 1525 1526 1526 1526 1526 1527 1527 1528 1528 1528 1529 1529 1529 1529 1529 1529 1529 1530 1530 1530 1530
1515 1516 1518 1519 1520 1521 1522 1523 1524 1524 1525 1525 1526 1526 1526 1526 1527 1527 1527 1527 1527 1527 1526 1526 1527 1527 1528 1528 1528 1528 1529 1530 1530 1530 1530 1530 1530 1530 1531 1531 1531 1531 1531
1514 1516 1517 1519 1520 1521 1522 1523 1524 1525 1526 1526 1526 1527 1527 1527 1527 1527 1527 1527 1527 1527 1527 1527 1527 1528 1528 1529 1529 1529 1530 1531 1531 1531 1531 1531 1531 1531 1531 1532 1532 1532 1532
1513 1514 1516 1518 1519 1520 1521 1522 1524 1525 1525 1526 1526 1527 1527 1527 1528 1528 1528 1528 1528 1528 1528 1528 1528 1528 1529 1529 1530 1530 1531 1531 1532 1532 1532 1532 1532 1532 1532 1532 1532 1532 1532
1511 1513 1515 1516 1518 1519 1521 1522 1523 1524 1525 1526 1526 1527 1527 1528 1528 1528 1528 1528 1528 1528 1528 1529 1529 1529 1529 1529 1530 1531 1531 1531 1532 1532 1533 1533 1533 1533 1533 1533 1533 1533 1533
1509 1511 1513 1515 1517 1518 1520 1521 1522 1523 1524 1525 1526 1526 1527 1527 1528 1528 1528 1528 1529 1529 1529 1529 1529 1529 1529 1530 1530 1531 1531 1531 1532 1532 1533 1533 1533 1533 1533 1533 1533 1533 1533
1508 1510 1512 1514 1516 1517 1519 1520 1521 1522 1523 1524 1525 1526 1526 1527 1527 1527 1528 1528 1528 1529 1529 1529 1529 1529 1529 1530 1530 1530 1531 1531 1531 1532 1532 1532 1533 1533 1533 1533 1533 1533 1533